TITAN 3C TRANSTAGE DEB, 43448

Orbit data source: Space-Track

TITAN 3C TRANSTAGE DEB, 43448 is space debris in GEO originally from a launch on Sun, 09 Feb 1969 UTC launched from the Air Force Eastern Test Range (AFETR). Debris objects in space refer to the collection of defunct objects orbiting the Earth. Examples of debris include non-operational satellites, rocket bodies, and fragments generated from explosions, collisions, or faulty payload assembly.

Loading next visibility...
Identifier
43448, 1969-013H
Orbit
GEO
Country
Flag of USUS
Related business
Manufacturer
Martin Marietta
Mission
Spacecraft
Bus & Motor
Unknown
Mass
Unknown
Launch date (UTC)
1969-02-09 (57 years ago)
Launch vehicle
Unknown
Launch site
Air Force Eastern Test Range (AFETR)
Object type
Payload
Rocket body
Debris
Shape & HBR
Unknown shape, 1.1 m
Radar Cross Section
RCS unknown

Expand to show TLE details & history
Last TLE update: 11 hours ago

TLE from 11 hours ago
0 TITAN 3C TRANSTAGE DEB
1 43448U 69013H   26035.08167306 -.00000080  00000-0  00000-0 0  9998
2 43448   0.8426 115.5128 0240511  25.4613 220.7604  0.98710541 28222
Epoch: 2026-02-04T01:57Z
TLE epoch observation values (Epoch: 2026-02-04T01:57:36.552Z)
Latitude
-0.7851°
Longitude
-163.65813°
Altitude
37,018.892 km
Speed
3.003 km/s
True Right ascension
23h 59m 59s
True Declination
0° 47' 04"
Sunlit
Object was in daylight at epoch
Visualization orbit readout
Latitude
Unknown
Longitude
Unknown
Altitude
Unknown
Speed
Unknown
Apparent Right ascension
Unknown
Apparent Declination
Unknown
Sunlit
N/A
Visualization observer readout
Local Sidereal Time
14:34:14
Azimuth
Unknown
Elevation
Unknown
Doppler factor
Unknown
Orbital elements
Apogee altitude
37,255.886 km
Perigee altitude
35,206.289 km
Semi-major axis
42,609.224 km
Eccentricity
0.02405
Inclination
0.8426°
RAAN
115.5128°
Arg. of periapsis
25.4613°
True anomaly
219.00135°
Mean anomaly
220.7604°
Eccentric anomaly
219.87689°
Mean motion
0.24677 °/min
Orbital period
1,458.86 mins
BSTAR
0
Loading maneuver chart data...
Computing Atmospheric mass density...

Documentation

Showing up to 5 results
|